Regional Weather Roundup
Issued by NWS

Home | Current Version | Previous Version | Text Only | Print | Product List | Glossary Off
Versions: 1 2 3 4 5 6 7 8 9 10 11 12 13 14 15 16 17 18 19 20 21 22 23 24 25 26 27 28 29 30 31 32 33 34 35 36 37 38 39 40 41 42 43 44 45 46 47 48 49 50

000
ASUS43 KMPX 261110
RWRMN
WEATHER ROUNDUP FOR MINNESOTA
NATIONAL WEATHER SERVICE TWIN CITIES/CHANHASSEN MN
500 AM CST THU FEB 26 2015


NOTE: "FAIR" INDICATES FEW OR NO CLOUDS BELOW 12,000 FEET WITH NO
SIGNIFICANT WEATHER AND/OR OBSTRUCTIONS TO VISIBILITY. N/A MEANS
CURRENT SKY AND/OR WEATHER CONDITIONS ARE NOT AVAILABLE.

MNZ060>063-068>070-261200-
   Twin Cities Metro

CITY           SKY/WX    TMP DP  RH WIND       PRES   REMARKS
TWIN CITIES    CLEAR     -1 -12  59 N13       30.36R WCI -19
ST PAUL        CLEAR     -1 -11  62 NW12      30.38R WCI -18
CRYSTAL        CLEAR     -1 -12  59 N9        30.36R WCI -16
BLAINE         CLEAR     -2 -11  65 NW9       30.35R WCI -18
EDEN PRAIRIE   CLEAR     -1 -12  59 N10       30.35R WCI -17
SOUTH ST PAUL  CLEAR      0 -12  57 N7        30.36R WCI -13
LAKE ELMO      FAIR      -2  -9  71 NW7       30.35R WCI -16
$$
MNZ001>005-007-008-013>017-022>024-027-028-261200-
   Northwest Minnesota

CITY           SKY/WX    TMP DP  RH WIND       PRES   REMARKS
BEMIDJI        CLEAR    -17 -22  77 NW6       30.37R WCI -31
HALLOCK        CLEAR    -15 -22  70 N7        30.50R WCI -31
ROSEAU         PTCLDY   -17 -24  70 W5        30.45R WCI -29
WARROAD        PTCLDY   -17 -24  70 NW8       30.42R WCI -34
THIEF RVR FALL PTCLDY   -15 -22  70 NW9       30.44R WCI -33
CROOKSTON      CLEAR    -15 -18  84 NW8       30.50S WCI -32
FOSSTON        CLEAR    -20 -27  69 W5        30.42R WCI -33
DETROIT LAKES  CLEAR    -13 -17  84 NW6       30.41R WCI -27
MOORHEAD       CLEAR    -11 -15  84 N7        30.50R WCI -26
PARK RAPIDS    CLEAR    -14 -20  74 NW9       30.35R WCI -33
MAHNOMEN       CLOUDY   -15 -20  79 NW5       30.42R WCI -27
$$
MNZ006-009>011-018-025>026-261200-
   North Central Minnesota

CITY           SKY/WX    TMP DP  RH WIND       PRES   REMARKS
BAUDETTE       PTCLDY   -17 -23  73 NW9       30.38R WCI -36
FLAG ISLAND    PTCLDY   -20 -26  76 NW7       30.41R WCI -37
INTL FALLS     MOCLDY   -19 -24  77 NW3       30.36R
WASKISH        PTCLDY   -17 -22  76 CALM      30.38R
BIG FORK       CLEAR    -17 -22  76 CALM      30.34R
LONGVILLE      CLEAR    -13 -18  77 NW5       30.36R WCI -25
GRAND RAPIDS   CLEAR    -13 -18  77 W8        30.31R WCI -30
CRANE LAKE     PTCLDY   -33 -38  75 CALM      30.36S
ORR            PTCLDY   -20 -27  69 CALM      30.29R
COOK           PTCLDY   -29 -36  68 CALM      30.31R
WALKER         FAIR     -15 -20  78 W3        30.36R
$$
MNZ012-019>021-037-261200-
   Northeast Minnesota

CITY           SKY/WX    TMP DP  RH WIND       PRES   REMARKS
DULUTH         PTCLDY   -11 -18  71 NW6       30.27R WCI -25
ELY            CLEAR    -27 -35  68 CALM      30.28R
HIBBING        PTCLDY   -15 -21  74 N7        30.30R WCI -31
EVELETH        PTCLDY    -9 -17  70 CALM      30.30R
DULUTH HARBOR  CLEAR     -2 -11  65 CALM      30.37S
TWO HARBORS    CLEAR     -8 -17  65 NW3       30.28S
SILVER BAY     CLEAR    -11 -18  70 CALM      30.29R
GRAND MARAIS     N/A     -8 -16  67 N7        30.35S WCI -23
G MARAIS ARPRT PTCLDY   -15 -22  70 NW7       30.18R WCI -31
$$
MNZ029>031-032-039>041-046>048-054>057-064-261200-
   West Central Minnesota

CITY           SKY/WX    TMP DP  RH WIND       PRES   REMARKS
FERGUS FALLS   CLEAR    -11 -18  70 N10       30.49R WCI -30
WHEATON        CLEAR    -13 -17  84 W7        30.49R WCI -29
MORRIS         CLEAR     -9 -15  77 NW10      30.43R WCI -28
ALEXANDRIA     CLEAR    -12 -17  78 NW7       30.38R WCI -27
ELBOW LAKE     FAIR     -11 -15  80 NW8       30.43R WCI -28
WADENA         CLEAR    -15 -18  84 NW6       30.38R WCI -29
GLENWOOD       CLEAR     -9 -15  77 NW10      30.39R WCI -28
APPLETON       CLEAR     -8 -15  71 NW10      30.45R WCI -26
BENSON         CLEAR    -11 -17  77 N7        30.42R WCI -26
ORTONVILLE     CLEAR     -9 -15  77 NW7       30.46R WCI -24
MADISON        CLEAR     -8 -13  77 NW12      30.46R WCI -27
WILLMAR        FAIR      -9 -17  70 NW6       30.41R WCI -23
$$
MNZ033>034-036-042>043-049>051-058-059-261200-
   Central Minnesota

CITY           SKY/WX    TMP DP  RH WIND       PRES   REMARKS
ST CLOUD       CLEAR     -6 -13  71 NW7       30.38R WCI -20
SAUK CENTRE    FAIR      -9 -15  77 NW8       30.38R WCI -26
PAYNESVILLE    CLEAR     -9 -15  77 W7        30.39R WCI -24
AITKIN         CLEAR     -9 -17  70 NW3       30.34R
PINE RIVER     CLEAR    -13 -18  77 NW5       30.39R WCI -25
BRAINERD       CLEAR    -11 -17  75 NW5       30.36R WCI -23
STAPLES        CLEAR    -17 -20  83 NW6       30.37R WCI -31
LONG PRAIRIE   FAIR      -9 -15  77 NW8       30.38R WCI -26
LITTLE FALLS   CLEAR     -8 -15  71 CALM      30.38S
LITCHFIELD     CLEAR     -6 -11  77 CALM      30.39R
BUFFALO        CLEAR     -2 -11  65 NW8       30.38R WCI -17
MAPLE LAKE     CLEAR     -3  -9  74 NW6       30.38R WCI -15
$$
MNZ037-044-045-052-053-261200-
   East Central Minnesota

CITY           SKY/WX    TMP DP  RH WIND       PRES   REMARKS
PRINCETON      CLEAR     -8 -15  71 CALM      30.36S
MORA           CLEAR     -6 -15  65 NW7       30.37R WCI -20
CAMBRIDGE      CLEAR     -6 -15  65 NW3       30.35R
RUSH CITY      CLOUDY    -6 -14  66 NW6       30.36R WCI -18
MOOSE LAKE     CLEAR     -8 -17  65 CALM      30.33R
HINCKLEY       FAIR      -6 -15  65 NW5       30.35R WCI -17
CLOQUET        CLEAR    -11 -18  70 NW6       30.30R WCI -25
MCGREGOR       CLEAR     -9 -15  77 NW5       30.34R WCI -21
$$
MNZ071>073-080-081-089-090-097-098-261200-
   Southwest Minnesota

CITY           SKY/WX    TMP DP  RH WIND       PRES   REMARKS
MONTEVIDEO     CLEAR     -9 -15  77 N8        30.45R WCI -26
GRANITE FALLS  CLEAR     -9 -15  77 NW8       30.45R WCI -26
CANBY          CLEAR     -8 -13  78 NW8       30.45R WCI -24
MARSHALL       CLEAR     -8 -15  71 NW12      30.42R WCI -27
REDWOOD FALLS  CLEAR     -7 -12  79 NW12      30.41R WCI -26
OLIVIA         CLEAR     -9 -15  77 NW8       30.41R WCI -26
PIPESTONE      PTCLDY    -8 -13  77 N8        30.35R WCI -23
WINDOM         PTCLDY    -8 -11  84 NW18      30.34S WCI -31
WORTHINGTON    CLEAR     23 -15  18 N14       30.35R WCI  11
JACKSON        CLOUDY    -6 -11  77 NW18      30.33R WCI -29
TRACY          CLEAR     -7 -12  78 NW13      30.39R WCI -26
SLAYTON        CLEAR     -8 -13  76 NW15      30.35R WCI -29
$$
MNZ065>067-074>077-082>085-091>093-261200-
   South Central Minnesota

CITY           SKY/WX    TMP DP  RH WIND       PRES   REMARKS
MANKATO        CLEAR     -6 -15  65 NW10      30.35R WCI -23
NEW ULM        FAIR      -8 -15  71 NW14      30.37S WCI -28
ST JAMES       CLEAR     -8 -11  84 NW13      30.38R WCI -28
FAIRMONT       CLEAR     -6 -11  77 NW13      30.32R WCI -25
GLENCOE        CLEAR     -3 -10  75 NW8       30.37R WCI -18
FARIBAULT      CLEAR     -6 -13  71 NW7       30.33R WCI -20
OWATONNA       CLEAR    -11 -18  70 CALM      30.32R
WASECA         CLEAR     -9 -15  77 NW10      30.34R WCI -28
ALBERT LEA     CLEAR     -6 -11  77 NW7       30.29R WCI -20
$$
MNZ078>079-086>088-094>096-261200-
   Southeast Minnesota

CITY           SKY/WX    TMP DP  RH WIND       PRES   REMARKS
ROCHESTER      CLEAR     -5 -13  68 N12       30.26R WCI -23
RED WING       CLEAR      0 -15  50 N8        30.33R WCI -15
STANTON        CLEAR     -2 -12  61 N10       30.33R WCI -18
DODGE CENTER   PTCLDY    -6 -13  71 N8        30.26R WCI -21
WINONA         CLEAR      0  -8  71 CALM      30.32R
AUSTIN         CLEAR     -4 -11  71 N8        30.27R WCI -19
PRESTON        CLEAR     -4 -13  65 N6        30.25R WCI -17
$$
ABBREVIATIONS USED IN REMARKS
   TC - TEMPERATURES IN CELSIUS
  WCI - WIND CHILL INDEX
   HX - HEAT INDEX
  VSB - VISIBILITY
$$



USA.gov is the U.S. government's official web portal to all federal, state and local government web resources and services.